Terug naar catalogus

STARLINK-30079

ActiefCommunicatieVLEO
NORAD 56706·PAYLOAD·🇺🇸 United States

Gelanceerd May 19, 2023 vanaf Cape Canaveral Space Force Station

Loading…

Volgende Passages (komende 24 uur)

TLE

VersSource: CelesTrak SupGP

Epoch: Sep 15, 2026, 02:47 UTC

1 56706C 23067U   26258.11645833  .00012303  00000+0  44572-3 0  2587
2 56706  43.0027 291.6045 0001562 251.0611 311.1803 15.27564121    11

Volg STARLINK-30079 in realtime met AllMySat

Download on the App Store